Location: Piolenc
(44.1794°N, 4.7641°E)
Time: 00:04:17
(UTC+00:00)

USA 305 - Pass Details

Date: 27 January 2021
Orbit: 565 x 578 km, 54.0° (Epoch: 26 February)

Event Time Altitude Azimuth Distance (km) Brightness Sun altitude
Exits shadow 04:50:25 70° 29° (NNE) 603 2.9 -23.9°
Drops below altitude 10° 04:54:14 10° 53° (NE) 1,863 6.1 -23.2°
Sets 04:56:29 0° 54° (NE) 2,762 7.2 -22.8°
